Back to catalog

DELTA 1 DEB

AliveLEO
NORAD 10183·DEBRIS·🇺🇸 United States

Launched Jul 14, 1977 from Cape Canaveral Space Force Station

Loading…

Next Passes (next 24 hours)

TLE

FreshSource: Space-Track

Epoch: Sep 14, 2026, 07:58 UTC

1 10183U 77065M   26257.33242077  .00002272  00000-0  52590-3 0  9995
2 10183  29.2103   1.9399 0459656 102.9236 262.3070 14.03505872423151

Track DELTA 1 DEB in real time with AllMySat

Download on the App Store